Tillbaka till svenska Fidonet
English   Information   Debug  
FILM   0/18
FNEWS_PUBLISH   4751
FN_SYSOP   42027
FN_SYSOP_OLD1   71952
FTP_FIDO   0/2
FTSC_PUBLIC   0/13898
FUNNY   0/4886
GENEALOGY.EUR   0/71
GET_INFO   105
GOLDED   0/408
HAM   0/16386
HOLYSMOKE   0/6791
HOT_SITES   0/1
HTMLEDIT   0/71
HUB203   466
HUB_100   264
HUB_400   39
HUMOR   0/29
IC   0/2851
INTERNET   0/424
INTERUSER   0/3
IP_CONNECT   719
JAMNNTPD   0/233
JAMTLAND   0/47
KATTY_KORNER   0/41
LAN   0/16
LINUX-USER   0/19
LINUXHELP   0/1155
LINUX   0/22266
LINUX_BBS   0/957
mail   18.68
mail_fore_ok   249
MENSA   0/341
MODERATOR   0/102
MONTE   0/992
MOSCOW_OKLAHOMA   0/1245
MUFFIN   0/783
MUSIC   0/321
N203_STAT   938
N203_SYSCHAT   313
NET203   321
NET204   69
NET_DEV   0/10
NORD.ADMIN   0/101
NORD.CHAT   0/2572
NORD.FIDONET   189
NORD.HARDWARE   0/28
NORD.KULTUR   0/114
NORD.PROG   0/32
NORD.SOFTWARE   0/88
NORD.TEKNIK   0/58
NORD   0/453
OCCULT_CHAT   0/93
OS2BBS   0/787
OS2DOSBBS   0/580
OS2HW   0/42
OS2INET   0/37
OS2LAN   0/134
OS2PROG   0/36
OS2REXX   0/113
OS2USER-L   207
OS2   0/4806
OSDEBATE   0/18996
PASCAL   0/490
PERL   0/457
PHP   0/45
POINTS   0/405
POLITICS   0/29554
POL_INC   11364/14731
PSION   103
R20_ADMIN   1132
R20_AMATORRADIO   0/2
R20_BEST_OF_FIDONET   14
R20_CHAT   0/893
R20_DEPP   0/3
R20_DEV   399
R20_ECHO2   1667
R20_ECHOPRES   0/35
R20_ESTAT   0/719
R20_FIDONETPROG...
...RAM.MYPOINT
  0/2
R20_FIDONETPROGRAM   0/22
R20_FIDONET   0/248
R20_FILEFIND   0/24
R20_FILEFOUND   0/22
R20_HIFI   0/3
R20_INFO2   3558
R20_INTERNET   0/12940
R20_INTRESSE   0/60
R20_INTR_KOM   0/99
R20_KANDIDAT.CHAT   42
R20_KANDIDAT   28
R20_KOM_DEV   112
R20_KONTROLL   0/13360
R20_KORSET   0/18
R20_LOKALTRAFIK   0/24
R20_MODERATOR   0/1852
R20_NC   76
R20_NET200   245
R20_NETWORK.OTH...
...ERNETS
  0/13
R20_OPERATIVSYS...
...TEM.LINUX
  0/44
R20_PROGRAMVAROR   0/1
R20_REC2NEC   534
R20_SFOSM   0/341
R20_SF   0/108
R20_SPRAK.ENGLISH   0/1
R20_SQUISH   107
R20_TEST   2
R20_WORST_OF_FIDONET   20
RAR   0/9
RA_MULTI   106
RA_UTIL   0/162
REGCON.EUR   0/2066
REGCON   0/13
SCIENCE   0/1206
SF   0/239
SHAREWARE_SUPPORT   0/5146
SHAREWRE   0/14
SIMPSONS   0/169
STATS_OLD1   0/2539.065
STATS_OLD2   0/2530
STATS_OLD3   0/2395.095
STATS_OLD4   0/1692.25
SURVIVOR   0/495
SYSOPS_CORNER   0/3
SYSOP   0/84
TAGLINES   0/112
TEAMOS2   0/4530
TECH   0/2617
TEST.444   0/105
TRAPDOOR   0/19
TREK   0/755
TUB   0/290
UFO   0/40
UNIX   0/1316
USA_EURLINK   0/102
USR_MODEMS   0/1
VATICAN   425/2740
VIETNAM_VETS   0/14
VIRUS   0/378
VIRUS_INFO   0/201
VISUAL_BASIC   0/473
WHITEHOUSE   0/5187
WIN2000   0/101
WIN32   0/30
WIN95   0/4291
WIN95_OLD1   15727/70272
WINDOWS   0/1517
WWB_SYSOP   0/419
WWB_TECH   0/810
ZCC-PUBLIC   0/1
ZEC   4

 
4DOS   0/134
ABORTION   0/7
ALASKA_CHAT   0/506
ALLFIX_FILE   0/1313
ALLFIX_FILE_OLD1   0/7997
ALT_DOS   0/152
AMATEUR_RADIO   0/1039
AMIGASALE   0/14
AMIGA   0/331
AMIGA_INT   0/1
AMIGA_PROG   0/20
AMIGA_SYSOP   0/26
ANIME   0/15
ARGUS   0/924
ASCII_ART   0/340
ASIAN_LINK   0/651
ASTRONOMY   0/417
AUDIO   0/92
AUTOMOBILE_RACING   0/105
BABYLON5   14279/17862
BAG   135
BATPOWER   0/361
BBBS.ENGLISH   0/382
BBSLAW   0/109
BBS_ADS   0/5290
BBS_INTERNET   0/507
BIBLE   0/3563
BINKD   0/1119
BINKLEY   0/215
BLUEWAVE   0/2173
CABLE_MODEMS   0/25
CBM   0/46
CDRECORD   0/66
CDROM   0/20
CLASSIC_COMPUTER   0/378
COMICS   0/15
CONSPRCY   0/899
COOKING   39891
COOKING_OLD1   0/24719
COOKING_OLD2   0/40862
COOKING_OLD3   0/37489
COOKING_OLD4   0/35496
COOKING_OLD5   9370
C_ECHO   0/189
C_PLUSPLUS   0/31
DIRTY_DOZEN   0/201
DOORGAMES   0/2155
DOS_INTERNET   0/196
duplikat   6102
ECHOLIST   0/18295
EC_SUPPORT   0/318
ELECTRONICS   0/359
ELEKTRONIK.GER   1534
ENET.LINGUISTIC   0/13
ENET.POLITICS   0/4
ENET.SOFT   0/11701
ENET.SYSOP   34210
ENET.TALKS   0/32
ENGLISH_TUTOR   0/2000
EVOLUTION   0/1335
FDECHO   0/217
FDN_ANNOUNCE   0/7068
FIDONEWS   24749
FIDONEWS_OLD1   0/49742
FIDONEWS_OLD2   0/35949
FIDONEWS_OLD3   0/30874
FIDONEWS_OLD4   0/37224
FIDO_SYSOP   12913
FIDO_UTIL   0/180
FILEFIND   0/209
FILEGATE   0/212
Möte HAM, 16386 texter
 lista första sista föregående nästa
Text 3015, 788 rader
Skriven 2009-06-10 01:00:20 av Amsat List (1:323/120.0)
Ärende: [keps]  orb09160.amsa
=============================
[keps]  orb09160.amsa

Return-Path: <keps-bounces@amsat.org>
X-Rcpt: craig.healy@chowda.com
X-UIDL: 1244608581.11529

SB KEPS @ AMSAT  $ORB09160.O
Orbital Elements  09160.OSCAR

HR AMSAT ORBITAL ELEMENTS FOR OSCAR SATELLITES
FROM WA5QGD FORT WORTH,TX June 9, 2009
Send Subscribe/unsubscribe to KEPS at 
http://www.amsat.org/mailman/listinfo/keps
BID: ORB09160.O
TO ALL RADIO AMATEURS BT

Satellite: AO-07
Catalog number: 07530
Epoch time:      09160.58693488
Element set:     499
Inclination:      101.4264 deg
RA of node:       185.5430 deg
Eccentricity:    0.0011451
Arg of perigee:   283.2624 deg
Mean anomaly:     076.7169 deg
Mean motion:   12.53575789 rev/day
Decay rate:       -2.7e-07 rev/day^2
Epoch rev:           58176
Checksum:              330

Satellite: FO-29
Catalog number: 24278
Epoch time:      09159.79435357
Element set:    0070
Inclination:      098.5540 deg
RA of node:       034.9574 deg
Eccentricity:    0.0350740
Arg of perigee:   012.3166 deg
Mean anomaly:     348.6274 deg
Mean motion:   13.52943419 rev/day
Decay rate:       -3.5e-07 rev/day^2
Epoch rev:           63261
Checksum:              322

Satellite: SO-33
Catalog number: 25509
Epoch time:      09160.22645358
Element set:     471
Inclination:      031.4337 deg
RA of node:       097.5081 deg
Eccentricity:    0.0355016
Arg of perigee:   268.8481 deg
Mean anomaly:     087.1473 deg
Mean motion:   14.28252859 rev/day
Decay rate:       -7.4e-07 rev/day^2
Epoch rev:           55469
Checksum:              326

Satellite: RS-22
Catalog number: 27939
Epoch time:      09159.85636821
Element set:    0811
Inclination:      097.9459 deg
RA of node:       035.0304 deg
Eccentricity:    0.0013979
Arg of perigee:   154.4464 deg
Mean anomaly:     205.7419 deg
Mean motion:   14.63321411 rev/day
Decay rate:        9.6e-07 rev/day^2
Epoch rev:           30435
Checksum:              317

Satellite: VO-52
Catalog number: 28650
Epoch time:      09160.35033788
Element set:     244
Inclination:      097.7445 deg
RA of node:       222.1913 deg
Eccentricity:    0.0028077
Arg of perigee:   057.0497 deg
Mean anomaly:     303.3422 deg
Mean motion:   14.81593267 rev/day
Decay rate:       4.50e-06 rev/day^2
Epoch rev:           22148
Checksum:              302

/EX
SB KEPS @ AMSAT  $ORB09160.D
Orbital Elements  09160.MICROS

HR AMSAT ORBITAL ELEMENTS FOR THE MICROSATS
FROM WA5QGD FORT WORTH,TX June 9, 2009
Send Subscribe/unsubscribe to KEPS at 
http://www.amsat.org/mailman/listinfo/keps
BID: ORB09160.D
TO ALL RADIO AMATEURS BT

Satellite: AO-16
Catalog number: 20439
Epoch time:      09159.95804628
Element set:    0624
Inclination:      098.2767 deg
RA of node:       128.7343 deg
Eccentricity:    0.0010460
Arg of perigee:   190.8300 deg
Mean anomaly:     169.2670 deg
Mean motion:   14.31825823 rev/day
Decay rate:        1.0e-08 rev/day^2
Epoch rev:           01197
Checksum:              301

Satellite: LO-19
Catalog number: 20442
Epoch time:      09160.71506900
Element set:     542
Inclination:      098.2405 deg
RA of node:       136.7495 deg
Eccentricity:    0.0011957
Arg of perigee:   184.4634 deg
Mean anomaly:     175.6451 deg
Mean motion:   14.32061640 rev/day
Decay rate:        4.8e-07 rev/day^2
Epoch rev:            1224
Checksum:              281

Satellite: AO-27
Catalog number: 22825
Epoch time:      09159.60487817
Element set:    0263
Inclination:      098.4370 deg
RA of node:       113.2992 deg
Eccentricity:    0.0007426
Arg of perigee:   291.0005 deg
Mean anomaly:     069.0380 deg
Mean motion:   14.29266834 rev/day
Decay rate:       -1.0e-08 rev/day^2
Epoch rev:           81868
Checksum:              314

Satellite: IO-26
Catalog number: 22826
Epoch time:      09160.78648506
Element set:     989
Inclination:      098.4293 deg
RA of node:       115.1944 deg
Eccentricity:    0.0007992
Arg of perigee:   284.5946 deg
Mean anomaly:     075.4349 deg
Mean motion:   14.29518900 rev/day
Decay rate:       -9.0e-08 rev/day^2
Epoch rev:           81895
Checksum:              363

Satellite: GO-32
Catalog number: 25397
Epoch time:      09159.77645956
Element set:    0913
Inclination:      098.3258 deg
RA of node:       182.5671 deg
Eccentricity:    0.0000318
Arg of perigee:   308.7497 deg
Mean anomaly:     051.3636 deg
Mean motion:   14.23158943 rev/day
Decay rate:      -1.56e-06 rev/day^2
Epoch rev:           56693
Checksum:              348

Satellite: NO-44
Catalog number: 26931
Epoch time:      09160.79841529
Element set:     188
Inclination:      067.0529 deg
RA of node:       083.3803 deg
Eccentricity:    0.0005484
Arg of perigee:   271.5552 deg
Mean anomaly:     088.4934 deg
Mean motion:   14.29558716 rev/day
Decay rate:        8.1e-07 rev/day^2
Epoch rev:           40152
Checksum:              325

Satellite: SO-50
Catalog number: 27607
Epoch time:      09160.77986587
Element set:     905
Inclination:      064.5602 deg
RA of node:       047.5872 deg
Eccentricity:    0.0068011
Arg of perigee:   207.4197 deg
Mean anomaly:     152.3261 deg
Mean motion:   14.71439307 rev/day
Decay rate:      -2.68e-06 rev/day^2
Epoch rev:           34758
Checksum:              329

Satellite: CO-55
Catalog number: 27844
Epoch time:      09160.73783787
Element set:     597
Inclination:      098.7120 deg
RA of node:       170.0082 deg
Eccentricity:    0.0010218
Arg of perigee:   159.5541 deg
Mean anomaly:     200.6034 deg
Mean motion:   14.20641144 rev/day
Decay rate:        3.0e-07 rev/day^2
Epoch rev:           30820
Checksum:              278

